COSMOS 970 DEB

Satellite information

Favourite Embed

Satellite Type and Status

DEBRISIN ORBIT

Key statistics

Satellite COSMOS 970 DEB at a glance.

Uptime

17306

Days in orbit

Revolutions

≈ 13.8

Per day

Orbit

LEO

Low Earth Orbit

Inclination

65.8

Latest

Satellite identification and parameters

Extended collection of information and parameters for COSMOS 970 DEB.

Object identification

Identified? True

Debris? True

Object name: COSMOS 970 DEB

International designator: 1977-121AD

Object number (NORAD): 10882

Object ID (CCSDS): 10882

Country: COMMONWEALTH OF INDEPENDENT STATES (CIS)

Current information (Y/N): Y

RCS size: SMALL

Orbital parameters

Period: 104.567 minutes

Inclination: 65.8241 deg

SMA: 7352.307 km

Apoapsis: 1078.133 km

Periapsis: 870.211 km

RAAN: 315.8185 deg

Eccentricy: 0.0141399

Argument of periapsis: 318.8239 deg

Mean anomaly: 40.2223 deg

Mean motion: 13.7710573 rev/day

Mean motion (dot): 0.00000355 rev/day2

B* drag term: 0.00040961 1/REarth

Two-line elements (TLE)

Creation date: May 9, 2025, 2:46 a.m.

Reference frame: TEME

Reference center: EARTH

Epoch: May 8, 2025, 3:43 p.m. UTC

TLE line 0: 0 COSMOS 970 DEB

TLE line 1: 1 10882U 77121AD 25128.65534143 .00000355 00000-0 40961-3 0 9992

TLE line 2: 2 10882 65.8241 315.8185 0141399 318.8239 40.2223 13.77105730370680

Live tracking on map

Real-time ground track for satellite COSMOS 970 DEB.

In-orbit conjunctions

A list of the most updated potential collisions computed for object COSMOS 970 DEB.

Target Orbit TCA Probability of collision Miss distance Type
CZ-6A DEB LEO 2025-02-17 07:52:56 0.00032652 368.0 (m) DEBRIS
FENGYUN 1C DEB SSO 2025-01-06 02:55:24 0.0009202748 55.0 (m) DEBRIS
FENGYUN 1C DEB SSO 2024-11-11 13:56:45 0.0001781519 713.0 (m) DEBRIS

Associated space launch

Second generation ASAT satellite

COSMOS 970 DEB was lifted into orbit during the mission ‘Tsiklon-2 | IS-A 8’, on board a Tsiklon-2 space rocket.

The launch took place on Dec. 21, 1977, 10:35 a.m. from 90.

For more information about the launch, click the button.

Launch to space Tsiklon-2 | IS-A 8
Tsiklon-2 | IS-A 8

Agency: N/A

Status: Launch Successful

Launch date: Dec. 21, 1977, 10:35 a.m. UTC

Rocket: Tsiklon-2

Launch pad: 90

Location: Baikonur Cosmodrome, Republic of Kazakhstan

...

Latest news about this satellite

There are no fresh news available about this satellite. Check back as we update our databases every day.


Newsletter sign-up

Weekly statistics, charts and insights to help you stay on top of the space industry.